Погода Буй

Погода Буй : погода сейчас, прогноз погоды и архив. Всё, что Вы хотите узнать о погоде Буй!

Хотите узнать прогноз погоды Буй? Тогда Вам сюда: Погода Буй

Поиск расширенной информации на нашем сайте:

Другие новости

Новости СМИ2

Главная страница сайта

Новости сайта

03.07.2017

Напоминаем, что на нашем специализированном сайте Метеоцентр.Азия вы можете получить высокодетализированные автоматические прогнозы погоды по пунктам России, СНГ и мира в авиационном формате (включающие направление и скорость ветра, видимость, явления погоды, количество и форму облачности, нижнюю и верхнюю границу облачности).


Погода Буй - сегодня

Время (UTC), дата Ветер
(°,м/с) 
Видим.   Явления Облачность Т
(°С)
Тd
(°С)
f(%) Тe
(°С)
Pmin
(гПа)
dP
(гПа)
Po
(мм)
O2
(г/м3)
Тmin Tmax R s Состояние
почвы
00 18.08.17 тихо ()   20000 м    ясно 
+13.4 +11.2 87 +16  1026.9  -0.3  761  290           
03 18.08.17 120 (ЮВ) 30000 м    10/3 300 м кучево-дожд., средняя 
[Cb cap|Ac und]
+13.8 +11.5 86 +18  1026.8  0.1  761  290  +13.3        сухая 
06 18.08.17 160 (Ю) 30000 м    3/3 2000 м средняя 
[Ac trans]
+19.8 +12.5 63 +25  1026.1  -0.4  760  283           
09 18.08.17 200 (Ю) 50000 м    6/6 600 м 
[Cu hum]
+24.4 +9.7 39 +25  1025.6  -0.3  760  280           
12 18.08.17 170 (Ю) 50000 м    8/8 600 м 
[Cu hum]
+24.3 +11 43 +27  1024.2  -1.3  759  279           
15 18.08.17 170 (Ю) 50000 м    8/0 верхняя 
[Ci fib]
+22.5 +12.8 54 +27  1023.2  -1.1  758  280    +25.1       
18 18.08.17 тихо ()   20000 м    8/0 верхняя 
[Ci fib]
+17.9 +13 73 +23  1022.8  -0.5  758  284           
21 18.08.17 120 (ЮВ) 0050 м    ясно 
+16.1 +13 82 +22  1022.2  -0.7  757  286           
00 19.08.17 тихо ()   20000 м    ясно 
+14.5 +13.1 91 +20  1021.9  -0.4  757  287           
03 19.08.17 тихо ()   20000 м    9/0 средняя, верхняя 
[Ac As|Ci fib]
+14.7 +13.6 93 +21  1021.4  -0.4  757  287  +13.7        сухая 
06 19.08.17 200 (Ю) 50000 м    10/0 средняя 
[Ac und]
+20.1 +15 72 +29  1021.1  0.1  757  281           
09 19.08.17 170 (Ю) 50000 м    9/6 600 м кучево-дожд., средняя 
[Cb cap|Ac As]
+23.7 +16.8 65 +35  1020.9  0.1  757  277           
12 19.08.17 230 (ЮЗ) 50000 м    8/6 600 м кучево-дожд., верхняя 
[Cb cap|Ci]
+24.5 +16.5 61 +36  1020.7  0.1  757  276           
15 19.08.17 тихо ()   50000 м    10/8 600 м кучево-дожд., средняя 
[Cb cap|Ac und]
+22.2 +18 77 +36  1019.9  -0.9  756  278    +26       
18 19.08.17 220 (ЮЗ) 20000 м    8/0 1500 м средняя 
[Ac As]
+20 +17.7 87 +33  1020.1  0.1  756  280           
21 19.08.17 тихо ()   20000 м    ясно 
+16.4 +15.5 94 +26  1020.9  0.6  756  284           
00 20.08.17 тихо ()   20000 м    ясно 
+14.8 +14.1 96 +22  1020.9  0.1  756  286           
03 20.08.17 тихо ()   н/о    н/о 
+15 +14.2 95 +22  1020.6  -0.2  756  286  +13.8         
06 20.08.17 230 (ЮЗ) 50000 м    8/0 верхняя 
[Ci]
+22.1 +17.1 73 +34  1020.6  0.3  756  278           
09 20.08.17 220 (ЮЗ) 50000 м    ясно 
+28 +16.6 50 +39  1020.4  756  273           
12 20.08.17 230 (ЮЗ) 50000 м    ясно 
+29.7 +13.2 36 +35  1020.1  -0.3  756  272           
15 20.08.17 190 (Ю) 50000 м    ясно 
+27.5 +16.1 50 +38  1019.7  -0.4  756  273    +30.1       
18 20.08.17 тихо ()   20000 м    3/0 средняя 
[Ac trans]
+20.9 +17.6 81 +34  1020.4  0.4  756  279           
21 20.08.17 тихо ()   20000 м    ясно 
+17.3 +16.3 94 +28  1020.9  0.4  757  283           
00 21.08.17 тихо ()   20000 м    ясно 
+15.5 +14.7 95 +23  1021.5  0.5  757  286           
Время (UTC), дата Ветер
(°,м/с) 
Видим.   Явления Облачность Т
(°С)
Тd
(°С)
f(%) Тe
(°С)
Pmin
(гПа)
dP
(гПа)
Po
(мм)
O2
(г/м3)
Тmin Tmax R s Состояние
почвы

Для получения пояснительной информации подведите курсор к названию столбца.

ПОГОДА Буй - архив

Всё, что Вы хотите узнать о погоде Буй - удобно и подробно!

Выберите нужную дату (начиная с 1 января 2015* года) и нажмите кнопку "Найти".
Будут отображены архивные сводки погоды по пункту Буй, начиная с указанной даты.


Отображать данные в формате CSV (для использования в таблицах Excel)


Внимание! Наш архив погоды предназначен исключительно для личного некоммерческого использования в познавательных целях. Если Вам необходимы официальные справки о состоянии погоды (для производственных, юридических, коммерческих и т.п. целей), обращайтесь в органы Росгидромета.

*Примечание: данная дата относится к архиву по метеостанциям СССР (Россия, СНГ, Балтия).
Архив по метеостанциям Зарубежной Европы и Азии (кроме Китая) хранится 10 дней, по другим регионам земного шара (Китай, Африка, Америка, Австралия, Океания) - 1 день.

Буй - район местоположения метеостанции


Название, широта, долгота, высота метеостанции:
Буй 58.5°ш. 41.5°д. 103 м над ур. моря [Российская Федерация]

Дополнительная информация

В oтличие oт бoльшинства пoгoдных сайтoв мы публикуем пoдрoбную метеoинфoрмацию в детальнoм прoфессиoнальнoм фoрмате.

Характеристики температуры и влажнoсти вoздуха измеряются на высoте 2 м в тени вдали oт зданий и деревьев.
Скoрoсть ветра измеряется на высoте 10 м (на урoвне рoста челoвека скoрoсть ветра ниже в 1.5-2 раза). Если метеoстанция нахoдится в гoрoде или в лесу, тo скoрoсть ветра занижена на 2-4 м/с пo сравнению с oткрытым местoм. Скoрoсть ветра над акватoриями крупных рек и oзёр, а также на вершинах хoлмoв на 2-5 м/с выше, чем в oбычных услoвиях.
Атмoсфернoе давление в разных тoчках местнoсти мoжет значительнo oтличаться oт давления на метеoстанции, в зависимoсти oт услoвий рельефа (при пoдъёме на 10 м давление пoнижается примернo на 1 мм рт.ст.).